Hourly Data Report for November 01, 2017

All times are specified in Local Standard Time (LST). Add 1 hour to adjust for Daylight Saving Time where and when it is observed.

VANCOUVER INTL A
BRITISH COLUMBIA

49°11'41.000" N
123°11'02.000" W
4.30 m
1108395
71892
YVR

Download Data

Hourly Data (November 2017)
Hourly Data Report for November 1, 2017
TIME Temp Definition
°C
Dew Point Definition
°C
Rel Hum Definition
%
Wind Dir Definition
10's deg

Wind Spd Definition
km/h
Visibility Definition
km
Stn Press Definition
kPa
Hmdx Definition


Wind Chill Definition


Weather Definition


00:00 4.7 3.7 93 6 4 16.1 100.75     LegendNANA
01:00 4.2 3.7 97 18 5 19.3 100.69     Mainly Clear
02:00 7.1 6.5 96 28 26 19.3 100.71     LegendNANA
03:00 9.0 6.5 84 27 22 24.1 100.67     LegendNANA
04:00 9.2 6.5 84 25 27 32.2 100.56     Mainly Clear
05:00 9.3 7.2 87 24 22 24.1 100.60     LegendNANA
06:00 9.7 7.0 83 25 22 24.1 100.62     LegendNANA
07:00 8.0 6.3 89 33 5 48.3 100.63     Mostly Cloudy
08:00 7.2 6.2 93 36 13 48.3 100.67     LegendNANA
09:00 9.7 7.0 83 36 5 48.3 100.72     LegendNANA
10:00 10.9 7.1 77 26 3 48.3 100.76     Mainly Clear
11:00 11.0 7.0 77 25 12 48.3 100.81     LegendNANA
12:00 11.5 7.6 77 29 14 48.3 100.81     LegendNANA
13:00 11.4 7.7 78 28 14 48.3 100.82     Mainly Clear
14:00 10.5 7.1 79 25 13 48.3 100.79     LegendNANA
15:00 10.5 7.3 81 31 9 48.3 100.79     LegendNANA
16:00 10.3 6.3 77 15 4 48.3 100.77     Mostly Cloudy
17:00 10.0 6.1 76 14 10 32.2 100.76     LegendNANA
18:00 10.0 6.6 79 13 10 32.2 100.73     LegendNANA
19:00 9.5 7.3 86 12 14 32.2 100.69     Cloudy
20:00 8.8 7.8 93 9 14 32.2 100.66     LegendNANA
21:00 8.4 7.5 94 9 10 32.2 100.66     LegendNANA
22:00 8.7 7.3 91 12 11 32.2 100.60     Mostly Cloudy
23:00 7.8 5.4 85 11 13 32.2 100.55     LegendNANA

Notes on Data Quality.

Legend

  • E = Estimated
  • M = Missing
  • NA = Not Available
Date modified: